Location: Dal�� Lhota
(48.7500°N, 14.0167°E)
Time: 06:57:03
(UTC+00:00)

Transit 2A - Pass Details

Date: 31 July 2021
Orbit: 594 x 964 km, 66.7° (Epoch: 24 September)

Event Time Altitude Azimuth Distance (km) Brightness Sun altitude
Rises 11:02:32 0° 324° (NW) 3,085 8.9 59.4°
Reaches altitude 10° 11:06:07 10° 351° (N) 2,249 8.2 59.4°
Maximum altitude 11:08:36 13° 20° (NNE) 2,078 8.1 59.4°
Drops below altitude 10° 11:11:12 10° 49° (NE) 2,369 8.5 59.4°
Sets 11:15:10 0° 75° (ENE) 3,392 9.3 59.4°
